Location: Lombard
(41.8800°N, 88.0080°W)
Time: 19:14:41
(UTC-05:00)

Transit 2A - Pass Details

Date: 16 February 2023
Orbit: 591 x 964 km, 66.7° (Epoch: 29 March)

Event Time Altitude Azimuth Distance (km) Brightness Sun altitude
Rises 21:44:25 0° 334° (NNW) 3,537 10.0 -47.2°
Enters shadow 21:46:47 - 340° (NNW) 2,717 9.2 -47.5°
Reaches altitude 10° 21:47:02 10° 341° (NNW) 2,632 - -47.6°
Maximum altitude 21:52:57 44° 52° (NE) 1,298 - -48.5°
Drops below altitude 10° 21:59:00 10° 124° (SE) 2,696 - -49.4°
Sets 22:01:41 0° 130° (SE) 3,630 - -49.8°
